Showing default

COSMOS 2299, 23441

Orbit data source: Space-Track

COSMOS 2299, 23441 is a payload satellite owned by VKS (CIS) in LEO that was launched on Mon, 26 Dec 1994 UTC via a TSIKLON-3 launch vehicle from the Plesetsk Missile And Space Complex (PKMTR). Payload-class satellites include a variety of spacecraft equipped with specific instruments for various scientific and technological missions. These include communications satellites like Starlink; space stations such as the ISS; scientific satellites like the Hubble; Earth observation satellites from companies like Planet Labs, Umbra, and HawkEye 360; GPS; miniature CubeSats for education and research; and military/defense satellites.

Loading next visibility...
Identifier
23441, 1994-086A
Orbit
LEO
Country
Flag of CISCIS
Related business
Manufacturer
NPO PM
Mission
Defense Communications
Bus & Motor
STRELA-3, Unknown motor
Mass
225 kg wet, 225 kg dry
Launch date (UTC)
1994-12-26 (31 years ago)
Launch vehicle
TSIKLON-3
Launch site
Plesetsk Missile And Space Complex (PKMTR)
Object type
Payload
Rocket body
Debris
Shape & HBR
Cyl, 0.8 m
Radar Cross Section
1.257 m², Medium (>0.1 m² and < 1m²)

Expand to show TLE details & history
Last TLE update: 8 hours ago

TLE from 8 hours ago
0 COSMOS 2299
1 23441U 94086A   26071.28656188  .00000026  00000-0  85529-4 0  9992
2 23441  82.5751 358.9551 0008372  62.4541 297.7400 12.63795380439461
Epoch: 2026-03-12T06:52Z
TLE epoch observation values (Epoch: 2026-03-12T06:52:38.946Z)
Latitude
-0.00008°
Longitude
85.85419°
Altitude
1,407.02 km
Speed
7.158 km/s
True Right ascension
23h 55m 49s
True Declination
0° 00' 00"
Sunlit
Object was in daylight at epoch
Visualization orbit readout
Latitude
Unknown
Longitude
Unknown
Altitude
Unknown
Speed
Unknown
Apparent Right ascension
Unknown
Apparent Declination
Unknown
Sunlit
N/A
Visualization observer readout
Local Sidereal Time
19:31:24
Azimuth
Unknown
Elevation
Unknown
Doppler factor
Unknown
Orbital elements
Apogee altitude
1,411.152 km
Perigee altitude
1,398.121 km
Semi-major axis
7,782.774 km
Eccentricity
0.00084
Inclination
82.5751°
RAAN
358.9551°
Arg. of periapsis
62.4541°
True anomaly
297.65505°
Mean anomaly
297.74°
Eccentric anomaly
297.69753°
Mean motion
3.16112 °/min
Orbital period
113.88 mins
BSTAR
0.000085529
Loading maneuver chart data...
Computing Atmospheric mass density...
Loading historical data...
Loading historical data...
Loading historical data...
Loading historical data...
Loading historical data...
Loading historical data...
Loading historical data...

Documentation

Showing up to 5 results
|